688  
ASUS41 KBGM 180310  
RWRBGM  
 
REGIONAL WEATHER ROUNDUP  
NATIONAL WEATHER SERVICE BINGHAMTON NY  
1100 PM EDT SAT APR 17 2021  
 
NOTE: "FAIR" INDICATES FEW OR NO CLOUDS BELOW 12,000 FEET WITH NO  
SIGNIFICANT WEATHER AND/OR S TO VISIBILITY
.  
 
* = STATION(S) THAT DOES NOT REPORT PRECIPITATION, SUCH AS RAIN,  
SNOW, ETC, ALSO NO THUNDER OR FOG.
 
 
NYZ009-015>018-022>025-036-037-044>046-055>057-062-180400   
..CENTRAL NEW YORK
 
 
 
CITY SKY/WX TMP DP RH WIND PRES REMARKS
 
BINGHAMTON CLOUDY 41 36 82 W5 29.81S  
CORTLAND CLOUDY 41 37 87 CALM 29.83S  
DANSVILLE CLOUDY 44 41 89 SE5 29.85F  
ELMIRA CLOUDY 44 43 96 SW5 29.84S  
ENDICOTT CLOUDY 45 41 87 W6 29.84S  
ITHACA CLOUDY 43 41 93 CALM 29.84F  
HAMILTON CLOUDY 37 34 87 CALM 29.82S  
MONTICELLO CLOUDY 42 36 79 W6 29.81S  
NORWICH MOCLDY 37 34 87 CALM 29.83S  
ONEONTA PTCLDY 37 34 87 CALM 29.80S  
PENN YAN MOCLDY 44 39 82 VRB5 29.84S  
ROME PTCLDY 39 33 79 CALM 29.84S  
SENECA FALLS CLOUDY 45 39 81 CALM 29.85S  
SIDNEY CLOUDY 39 37 93 CALM 29.82F  
SKANEATELES CLOUDY 43 39 87 SW3 29.83S  
SYRACUSE CLOUDY 45 38 76 W5 29.84S  

 
 
PAZ038>040-043-044-047-048-072-180400   
..NORTHEAST PENNSYLVANIA
 
 
 
CITY SKY/WX TMP DP RH WIND PRES REMARKS
 
HAZLETON CLOUDY 41 34 75 CALM 29.85F  
SCRANTON CLOUDY 47 36 65 CALM 29.83S  
TOWANDA MOCLDY 45 39 81 CALM 29.88S  

 

 
KEY  
WCI = WIND CHILL INDEX  
VSB = VISIBILITY  
HX = HEAT INDEX  

 
 
 
CLICK HERE TO GO TO PREVIOUS BULLETINS.

The Nexlab NY Page
The Nexlab PA Page Main Text Page